Tracking 35030 objects as of 11-Aug-2026
HD Live streaming from Space Station
objects crossing your sky now

ASTRANIS UTILITYSAT

Track ASTRANIS UTILITYSAT now!


NORAD ID: 62454
Int'l Code: 2024-252A
Launch date: December 29, 2024
Source: United Kingdom (UK)
Launch site: AIR FORCE EASTERN TEST RANGE (AFETR)
Your satellite tracking list
Your tracking list is empty




NASA's NSSDC Master Catalog

Two Line Element Set (TLE):
1 62454U 24252A   26222.92085432 -.00000030  00000-0  00000-0 0  9997
2 62454   9.1452 325.4811 7541509 259.3547  16.6814  1.00293210  5979
Source of the keplerian elements: AFSPC